Regional Weather Roundup
Issued by NWS

Home | Current Version | Previous Version | Graphics & Text | Print | Product List | Glossary On
Versions: 1 2 3 4 5 6 7 8 9 10 11 12 13 14 15 16 17 18 19 20 21 22 23 24 25 26 27 28 29 30 31 32 33 34 35 36 37 38 39 40 41 42 43 44 45 46 47 48 49 50
000
ASUS43 KMKX 222000
RWRWI

WISCONSIN REGIONAL WEATHER ROUNDUP
NATIONAL WEATHER SERVICE MILWAUKEE/SULLIVAN WI
300 PM CDT WED OCT 22 2014

NOTE: "FAIR" INDICATES FEW OR NO CLOUDS BELOW 12,000 FEET WITH NO
SIGNIFICANT WEATHER AND/OR OBSTRUCTIONS TO VISIBILITY.

WIZ001-002-006>008-014>016-023>028-222100-
NORTHWEST WISCONSIN

CITY           SKY/WX    TMP DP  RH WIND       PRES   REMARKS
SUPERIOR ARPT  CLOUDY    58  39  49 S12       30.11F
ASHLAND        SUNNY     60  33  36 S8G17     30.15F
HAYWARD        PTSUNNY   56  35  45 S14       30.15F
SIREN          MOSUNNY   57  38  49 SE13      30.12F
CUMBERLAND     CLOUDY    54  34  47 SE15      30.16S
RICE LAKE      PTSUNNY   55  36  50 SE14      30.18F
CHETEK         PTSUNNY   55  38  52 E14G20    30.18F
LADYSMITH      SUNNY     55  33  42 S15       30.22F
EAU CLAIRE     NOT AVBL
MENOMONIE      PTSUNNY   57  36  45 SE15      30.18F
NEW RICHMOND   CLOUDY    56  38  50 SE13G18   30.14F
OSCEOLA        CLOUDY    56  40  55 SE17      30.15F
$$

WIZ003>005-009-010-017-018-222100-
NORTH CENTRAL WISCONSIN

CITY           SKY/WX    TMP DP  RH WIND       PRES   REMARKS
MANITOWISH WTR MOSUNNY   51  26  38 S13       30.20F
ARBOR VITAE    MOSUNNY   57  28  33 S15       30.22F
WOODRUFF       MOSUNNY   57  28  33 S15       30.22F
RHINELANDER    SUNNY     53  26  35 SE8       30.24F
EAGLE RIVER    MOSUNNY   54  19  25 S10       30.23F
LAND O LAKES   MOSUNNY   55  24  30 S8        30.23F
PHILLIPS       MOSUNNY   55  30  38 S12       30.21F
TOMAHAWK       SUNNY     54  30  39 CALM      30.24F
MEDFORD        SUNNY     52  35  51 SE9       30.23F
MERRILL        SUNNY     54  32  42 SE8       30.25F
$$

WIZ029-030-035-036-043>047-222100-
CENTRAL WISCONSIN

CITY           SKY/WX    TMP DP  RH WIND       PRES   REMARKS
WAUSAU         SUNNY     54  33  45 S10       30.24F
MOSINEE        NOT AVBL
MARSHFIELD     SUNNY     56  31  38 S14       30.23F
STEVENS POINT  SUNNY     53  32  44 SE7G16    30.27F
WAUPACA        SUNNY     57  36  45 SE9       30.28F HAZE
WAUTOMA        NOT AVBL
WISC RAPIDS      N/A     56  35  45 SE9       30.26F
CAMP DOUGLAS   NOT AVBL
$$

WIZ011>013-019>022-031-037>040-048>050-222100-
NORTHEAST WISCONSIN

CITY           SKY/WX    TMP DP  RH WIND       PRES   REMARKS
ANTIGO         MOSUNNY   50  32  49 SE10      30.27F
SHAWANO        SUNNY     56  36  47 SE3       30.30F
OCONTO         SUNNY     50  35  56 SE7       30.31F
STURGEON BAY   SUNNY     46  34  61 SE8       30.33F
GREEN BAY      SUNNY     54  36  50 S10       30.30F
MANITOWOC      NOT AVBL
APPLETON       MOSUNNY   54  37  54 SE10      30.30F
CLINTONVILLE   SUNNY     54  34  47 SE9       30.29F
OSHKOSH        SUNNY     55  39  54 SE6       30.28F
$$

WIZ032>034-041-042-053>061-222100-
SOUTHWEST WISCONSIN

CITY           SKY/WX    TMP DP  RH WIND       PRES   REMARKS
LA CROSSE      SUNNY     60  38  43 S13       30.21F
SPARTA         SUNNY     59  34  38 SE7       30.24F
VIROQUA        SUNNY     58  38  46 S12       30.22F
BOSCOBEL       SUNNY     60  37  42 SE8       30.24F
PRAIRIE DU CHI SUNNY     58  35  41 SE7       30.24F
PLATTEVILLE    SUNNY     58  40  50 SE12      30.26F
$$

WIZ056-057-062-063-064-067-068-222100-
SOUTH CENTRAL WISCONSIN

CITY           SKY/WX    TMP DP  RH WIND       PRES   REMARKS
REEDSBURG      SUNNY     57  37  48 SE9       30.26F
BARABOO/DELLS  SUNNY     57  35  44 S10       30.26F
LONE ROCK      NOT AVBL
MINERAL POINT  SUNNY     59  34  38 SE8       30.26F
MADISON        MOSUNNY   58  36  43 S10       30.27F
MIDDLETON      SUNNY     59  35  39 S7        30.28F
WATERTOWN      SUNNY     56  39  53 SE3       30.29F
MONROE         SUNNY     55  37  50 SE9       30.27F
JANESVILLE     SUNNY     61  36  39 S7        30.28F
$$

WIZ051-052-058>065-066-070>072-222100-
SOUTHEAST WISCONSIN

CITY           SKY/WX    TMP DP  RH WIND       PRES   REMARKS
MILWAUKEE      MOSUNNY   51  39  63 E9        30.32F
WAUKESHA       SUNNY     54  39  58 E5        30.31F
MILWAUKEE/TIMM SUNNY     52  39  62 SE6       30.32F
RACINE         SUNNY     51  39  63 SE7       30.34F
BURLINGTON     SUNNY     55  37  50 S3        30.30F
KENOSHA        SUNNY     53  40  61 E7        30.32F
FOND DU LAC    SUNNY     57  37  47 SE6       30.29F
SHEBOYGAN      SUNNY     52  38  58 SE9       30.32F
WEST BEND      SUNNY     54  36  50 SE6       30.30F
JUNEAU         SUNNY     55  38  52 S7        30.30F
$$

LSZ147-162-222100-
LAKE SUPERIOR

STATION/POSITION TIME  TEMP    WIND        PRES    WAVE
                       AIR SEA DIR/SP/G            HT/PER
                 (UTC) (F)     (DEG/KT/KT) (MB)    (FT/S)
W MID LAKE BUOY  1850   46 46  120/  8/ 10 1023.5F   2/ 4
DEVILS ISLAND    1900   53     150/ 11/ 15 1022.0F
PORT WING        1900   58     160/  8/ 14 1021.0F
SAXON HARBOR     1900   60     210/ 12/ 16 1021.7F
$$

LMZ867-665-643>646-222100-
LAKE MICHIGAN

STATION/POSITION TIME  TEMP    WIND        PRES    WAVE
                       AIR SEA DIR/SP/G            HT/PER
                 (UTC) (F)     (DEG/KT/KT) (MB)    (FT/S)
CHAMBERS ISLAND  1900   49     160/  4/  8 1027.4F
N MID LAKE BUOY  1850   43 51  140/  4/  6 1029.0F   1
NORTHPORT PIER   1900   44     140/  8/ 12 1027.8F
KEWAUNEE LAKESHO 1900   46     130/  4/  6 1026.6F
SHEBOYGAN LAKESH 1900   47 50  140/  9/ 10 1027.9F
PORT WASHINGTON  1940   50     140/  7/  8 1027.4F
ATWATER BUOY     1900   49     120/  8/ 10 1028.1F
MILWAUKEE LAKESH 1900   48     110/  8/ 10   N/A
S MID LAKE BUOY  1850   47 55   80/  2/  4 1028.2F   1/ 5
KENOSHA   LAKESH 1900   53     140/  8/  8 1027.1F
$$

TC  - TEMPERATURE IN CELSIUS
VSB - VISIBILITY IN STATUTE MILES
WCI - WIND CHILL INDEX
HX  - HEAT INDEX




USA.gov is the U.S. government's official web portal to all federal, state and local government web resources and services.